DW9439 Weather Reports


Display with metric or nautical units.
time (UTC)temp
F
wind
direction
speed
MPH
gust
MPH
rain 1hr
in
rain 24hr
in
rain mn
in
humidity
%
barometer
mb
20260508132032 53 5 7.0 11.0 0.00 0.00 0.00 78 1019.4
20260508131723 53 5 8.0 11.0 0.00 0.00 0.00 78 1019.2
20260508131415 53 5 8.0 11.0 0.00 0.00 0.00 78 1019.0
20260508131114 53 5 7.0 11.0 0.00 0.00 0.00 78 1018.9
20260508130815 53 5 7.0 10.0 0.00 0.00 0.00 78 1018.9
20260508125641 53 9 6.0 10.0 0.00 0.00 0.00 79 1018.6
20260508125337 53 9 6.0 10.0 0.00 0.00 0.00 79 1018.5
20260508125036 53 9 6.0 10.0 0.00 0.00 0.00 79 1018.4
20260508124724 52 11 6.0 9.0 0.00 0.00 0.00 79 1018.3
20260508124411 52 11 6.0 9.0 0.00 0.00 0.00 79 1018.2
20260508124059 52 11 6.0 9.0 0.00 0.00 0.00 78 1018.2
20260508123803 52 12 6.0 9.0 0.00 0.00 0.00 78 1018.2
20260508123505 52 12 6.0 8.0 0.00 0.00 0.00 78 1018.2
20260508123200 52 12 6.0 8.0 0.00 0.00 0.00 78 1018.1
20260508122852 52 12 6.0 8.0 0.00 0.00 0.00 78 1018.1
20260508122542 52 12 6.0 8.0 0.00 0.00 0.00 78 1018.1
20260508122246 52 12 5.0 8.0 0.00 0.00 0.00 78 1018.0
20260508121948 52 12 5.0 8.0 0.00 0.00 0.00 77 1018.1
20260508121635 52 12 5.0 8.0 0.00 0.00 0.00 77 1018.1
20260508121335 52 12 5.0 7.0 0.00 0.00 0.00 77 1018.0
20260508121028 52 12 4.0 7.0 0.00 0.00 0.00 77 1018.0
20260508120719 52 12 5.0 8.0 0.00 0.00 0.00 78 1018.0
20260508115953 52 12 5.0 8.0 0.00 0.00 0.00 79 1017.9
20260508115652 51 12 6.0 8.0 0.00 0.00 0.00 79 1018.0
20260508115340 51 12 5.0 8.0 0.00 0.00 0.00 79 1018.0
20260508115033 50 12 5.0 8.0 0.00 0.00 0.00 79 1017.9
20260508114308 50 12 1.0 4.0 0.00 0.00 0.00 77 1017.7
20260508113959 50 12 1.0 4.0 0.00 0.00 0.00 77 1017.6
20260508113653 50 12 1.0 4.0 0.00 0.00 0.00 77 1017.5
20260508113349 50 12 1.0 4.0 0.00 0.00 0.00 76 1017.4
20260508112626 51 12 1.0 4.0 0.00 0.00 0.00 76 1017.2
20260508111844 51 12 1.0 4.0 0.00 0.00 0.00 76 1017.0
20260508111540 51 12 2.0 4.0 0.00 0.00 0.00 76 1017.3
20260508111241 51 12 1.0 4.0 0.00 0.00 0.00 75 1017.3
20260508110100 51 12 0.0 1.0 0.00 0.00 0.00 75 1017.1
20260508105749 51 12 0.0 1.0 0.00 0.00 0.00 75 1017.2
20260508105449 51 12 0.0 1.0 0.00 0.00 0.00 75 1017.3
20260508105152 52 12 0.0 0.0 0.00 0.00 0.00 75 1017.3
20260508104841 52 12 0.0 0.0 0.00 0.00 0.00 75 1017.2
20260508104533 52 12 0.0 0.0 0.00 0.00 0.00 74 1017.1
20260508104220 52 12 0.0 0.0 0.00 0.00 0.00 74 1017.3
20260508103917 52 12 0.0 0.0 0.00 0.00 0.00 74 1017.4
20260508103610 52 12 0.0 0.0 0.00 0.00 0.00 74 1017.4
20260508102846 52 12 0.0 4.0 0.00 0.00 0.00 73 1017.5
20260508102542 52 12 0.0 4.0 0.00 0.00 0.00 73 1017.6
20260508102230 52 12 0.0 4.0 0.00 0.00 0.00 73 1017.5
20260508101933 52 12 1.0 5.0 0.00 0.00 0.00 73 1017.4
20260508101621 52 12 2.0 5.0 0.00 0.00 0.00 73 1017.5
20260508101311 52 12 3.0 5.0 0.00 0.00 0.00 73 1017.4
20260508101007 53 12 4.0 9.0 0.00 0.00 0.00 73 1017.6
20260508100654 53 12 4.0 9.0 0.00 0.00 0.00 73 1017.7
20260508100355 53 12 4.0 9.0 0.00 0.00 0.00 72 1017.7
20260508095630 53 12 5.0 9.0 0.00 0.00 0.00 72 1017.6
20260508094445 53 12 5.0 7.0 0.00 0.00 0.00 72 1017.9
20260508094145 53 12 5.0 8.0 0.00 0.00 0.00 71 1018.0
20260508093838 53 12 4.0 8.0 0.00 0.00 0.00 71 1017.8
20260508093532 53 12 5.0 8.0 0.00 0.00 0.00 71 1017.6
20260508093226 53 12 5.0 8.0 0.00 0.00 0.00 71 1017.6
20260508092919 53 12 6.0 8.0 0.00 0.00 0.00 70 1017.6
20260508092616 53 11 5.0 8.0 0.00 0.00 0.00 70 1017.8
20260508092319 54 11 6.0 8.0 0.00 0.00 0.00 70 1017.8
20260508092020 54 11 6.0 8.0 0.00 0.00 0.00 70 1017.8
20260508091722 54 11 6.0 8.0 0.00 0.00 0.00 70 1017.9
20260508091414 54 11 6.0 8.0 0.00 0.00 0.00 70 1018.0
20260508091107 54 11 6.0 8.0 0.00 0.00 0.00 70 1018.1
20260508090801 54 11 6.0 8.0 0.00 0.00 0.00 70 1018.1
20260508090451 54 11 5.0 8.0 0.00 0.00 0.00 70 1018.0
20260508085740 53 11 5.0 8.0 0.00 0.00 0.00 70 1018.1
20260508085432 53 11 5.0 8.0 0.00 0.00 0.00 70 1018.1
20260508085118 53 11 5.0 8.0 0.00 0.00 0.00 71 1018.0
20260508084819 52 10 5.0 8.0 0.00 0.00 0.00 71 1018.2
20260508084512 52 9 5.0 10.0 0.00 0.00 0.00 70 1018.3
20260508084200 53 9 5.0 10.0 0.00 0.00 0.00 70 1018.5
20260508083847 53 9 6.0 10.0 0.00 0.00 0.00 70 1018.6
20260508083533 53 9 7.0 17.0 0.00 0.00 0.00 70 1018.6
20260508083234 52 9 7.0 17.0 0.00 0.00 0.00 70 1018.5
20260508082457 52 9 9.0 17.0 0.00 0.00 0.00 71 1018.6
20260508082148 52 5 9.0 17.0 0.00 0.00 0.00 71 1018.5
20260508081835 51 5 7.0 17.0 0.00 0.00 0.00 70 1018.4
20260508081538 51 355 4.0 14.0 0.00 0.00 0.00 69 1018.6
20260508080819 51 311 0.0 0.0 0.00 0.00 0.00 67 1018.2
20260508080506 51 311 0.0 1.0 0.00 0.00 0.00 67 1018.3
20260508080200 51 311 0.0 0.0 0.00 0.00 0.00 66 1018.2
20260508075850 51 311 0.0 3.0 0.00 0.00 0.00 65 1018.2
20260508075548 51 311 1.0 3.0 0.00 0.00 0.00 65 1018.3
20260508074837 51 311 2.0 6.0 0.00 0.00 0.00 64 1018.3
20260508074537 51 311 2.0 6.0 0.00 0.00 0.00 64 1018.4
20260508074227 51 311 3.0 6.0 0.00 0.00 0.00 63 1018.5
20260508073502 52 311 1.0 6.0 0.00 0.00 0.00 61 1018.6
20260508073205 52 311 0.0 3.0 0.00 0.00 0.00 59 1018.7
20260508072853 52 311 0.0 2.0 0.00 0.00 0.00 58 1018.6
20260508072540 53 311 0.0 0.0 0.00 0.00 0.00 58 1018.7
20260508072237 53 311 1.0 7.0 0.00 0.00 0.00 57 1018.8
20260508071929 53 311 1.0 7.0 0.00 0.00 0.00 56 1018.8
20260508071210 54 311 4.0 20.0 0.00 0.00 0.00 55 1018.8
20260508070904 54 311 6.0 20.0 0.00 0.00 0.00 55 1018.9
20260508070554 54 311 8.0 20.0 0.00 0.00 0.00 56 1018.8
20260508070247 54 311 9.0 20.0 0.00 0.00 0.00 57 1018.8
20260508065939 52 309 8.0 20.0 0.00 0.00 0.00 59 1018.8
20260508065224 51 246 3.0 9.0 0.00 0.00 0.00 62 1018.7
20260508064040 51 236 5.0 7.0 0.00 0.00 0.00 62 1018.4
20260508063319 49 236 4.0 7.0 0.00 0.00 0.00 65 1018.4
20260508062547 47 236 3.0 4.0 0.00 0.00 0.00 67 1018.6
20260508062245 48 236 2.0 4.0 0.00 0.00 0.00 66 1018.5
20260508061933 48 236 2.0 4.0 0.00 0.00 0.00 65 1018.4
20260508061620 48 236 2.0 5.0 0.00 0.00 0.00 64 1018.5
20260508061317 49 236 3.0 5.0 0.00 0.00 0.00 63 1018.6
20260508061010 49 236 3.0 5.0 0.00 0.00 0.00 62 1018.6
20260508060708 50 236 4.0 5.0 0.00 0.00 0.00 61 1018.7
20260508055046 50 236 6.0 9.0 0.00 0.00 0.00 61 1018.7
20260508054739 50 236 6.0 9.0 0.00 0.00 0.00 62 1018.9
20260508054004 49 236 5.0 7.0 0.00 0.00 0.00 62 1018.8
20260508053708 49 236 5.0 7.0 0.00 0.00 0.00 62 1018.8
20260508053401 50 236 5.0 7.0 0.00 0.00 0.00 62 1018.8
20260508053052 50 236 5.0 7.0 0.00 0.00 0.00 61 1018.7
20260508052752 50 236 5.0 7.0 0.00 0.00 0.00 61 1018.8
20260508052454 50 236 5.0 7.0 0.00 0.00 0.00 61 1018.9
20260508052149 50 236 5.0 7.0 0.00 0.00 0.00 62 1018.9
20260508051846 50 236 5.0 7.0 0.00 0.00 0.00 62 1018.9
20260508051549 50 236 5.0 7.0 0.00 0.00 0.00 62 1018.9
20260508051247 49 236 5.0 7.0 0.00 0.00 0.00 63 1018.9
20260508050512 49 236 4.0 7.0 0.00 0.00 0.00 63 1018.9
20260508045800 49 236 4.0 6.0 0.00 0.00 0.00 63 1018.9
20260508045449 49 236 5.0 6.0 0.00 0.00 0.00 63 1018.9
20260508045139 49 236 5.0 6.0 0.00 0.00 0.00 64 1018.9
20260508044838 49 236 5.0 6.0 0.00 0.00 0.00 64 1018.9
20260508044540 49 236 5.0 6.0 0.00 0.00 0.00 64 1018.9
20260508044234 49 236 5.0 6.0 0.00 0.00 0.00 63 1018.9
20260508043924 50 236 5.0 6.0 0.00 0.00 0.00 62 1019.1
20260508043201 51 236 5.0 7.0 0.00 0.00 0.00 61 1019.0
20260508042439 51 236 5.0 7.0 0.00 0.00 0.00 59 1019.1
20260508041243 51 236 6.0 8.0 0.00 0.00 0.00 59 1019.4
20260508040941 51 236 6.0 8.0 0.00 0.00 0.00 60 1019.5
20260508040643 51 236 6.0 8.0 0.00 0.00 0.00 61 1019.5
20260508040345 51 236 5.0 7.0 0.00 0.00 0.00 62 1019.5
20260508035620 51 236 4.0 6.0 0.00 0.00 0.00 63 1019.6
20260508035323 51 236 4.0 5.0 0.00 0.00 0.00 63 1019.6
20260508035019 51 236 4.0 5.0 0.00 0.00 0.00 62 1019.7
20260508034250 51 236 4.0 6.0 0.00 0.00 0.00 61 1019.7
20260508033950 51 236 4.0 6.0 0.00 0.00 0.00 60 1019.7
20260508033641 52 236 4.0 6.0 0.00 0.00 0.00 60 1019.7
20260508033344 52 236 4.0 6.0 0.00 0.00 0.00 59 1019.7
20260508032628 53 236 4.0 6.0 0.00 0.00 0.00 57 1019.7
20260508032315 53 236 4.0 6.0 0.00 0.00 0.00 56 1019.7
20260508031544 54 236 4.0 7.0 0.00 0.00 0.00 54 1019.7
20260508031235 54 236 5.0 7.0 0.00 0.00 0.00 54 1019.7
20260508030932 54 236 5.0 7.0 0.00 0.00 0.00 54 1019.7
20260508030205 54 236 5.0 6.0 0.00 0.00 0.00 55 1019.6
20260508025858 54 236 5.0 6.0 0.00 0.00 0.00 55 1019.6
20260508025600 54 236 5.0 6.0 0.00 0.00 0.00 55 1019.6
20260508025247 54 236 5.0 6.0 0.00 0.00 0.00 55 1019.5
20260508024951 54 236 5.0 6.0 0.00 0.00 0.00 55 1019.5
20260508024642 54 236 5.0 6.0 0.00 0.00 0.00 55 1019.5
20260508024338 54 236 5.0 6.0 0.00 0.00 0.00 55 1019.5
20260508024036 54 236 5.0 6.0 0.00 0.00 0.00 55 1019.5
20260508023739 55 236 5.0 6.0 0.00 0.00 0.00 55 1019.5
20260508023425 55 236 5.0 6.0 0.00 0.00 0.00 55 1019.5
20260508022703 55 236 4.0 6.0 0.00 0.00 0.00 55 1019.4
20260508022401 55 236 5.0 6.0 0.00 0.00 0.00 54 1019.4
20260508022054 56 236 5.0 6.0 0.00 0.00 0.00 54 1019.5
20260508021744 56 236 5.0 6.0 0.00 0.00 0.00 54 1019.4
20260508021431 56 236 5.0 6.0 0.00 0.00 0.00 54 1019.5
20260508021127 56 236 5.0 6.0 0.00 0.00 0.00 53 1019.5
20260508020826 57 236 5.0 6.0 0.00 0.00 0.00 53 1019.4
20260508020516 57 236 4.0 6.0 0.00 0.00 0.00 52 1019.5
20260508015743 59 236 4.0 5.0 0.00 0.00 0.00 49 1019.4
20260508015438 59 236 4.0 5.0 0.00 0.00 0.00 48 1019.4
20260508015124 60 236 4.0 5.0 0.00 0.00 0.00 47 1019.4
20260508014358 61 236 4.0 5.0 0.00 0.00 0.00 45 1019.4
20260508014055 62 236 4.0 5.0 0.00 0.00 0.00 44 1019.4
20260508013750 62 236 4.0 5.0 0.00 0.00 0.00 42 1019.4
20260508013439 63 236 4.0 5.0 0.00 0.00 0.00 41 1019.2
20260508013126 64 236 4.0 5.0 0.00 0.00 0.00 39 1019.3
20260508012816 65 236 4.0 5.0 0.00 0.00 0.00 38 1019.3
20260508012045 67 236 4.0 5.0 0.00 0.00 0.00 35 1019.4
20260508011748 68 236 4.0 6.0 0.00 0.00 0.00 34 1019.4
20260508011447 69 236 4.0 6.0 0.00 0.00 0.00 34 1019.4
20260508011135 70 236 4.0 6.0 0.00 0.00 0.00 32 1019.4
20260508010825 70 236 4.0 6.0 0.00 0.00 0.00 31 1019.4
20260508010523 71 236 4.0 9.0 0.00 0.00 0.00 30 1019.3
20260508010219 71 236 5.0 9.0 0.00 0.00 0.00 30 1019.4
20260508005921 72 236 6.0 9.0 0.00 0.00 0.00 29 1019.4
20260508005619 72 236 6.0 10.0 0.00 0.00 0.00 28 1019.3
20260508005309 72 236 7.0 10.0 0.00 0.00 0.00 27 1019.2
20260508004542 73 236 7.0 12.0 0.00 0.00 0.00 26 1019.4
20260508004239 73 236 7.0 12.0 0.00 0.00 0.00 26 1019.4
20260508003522 74 236 9.0 12.0 0.00 0.00 0.00 24 1019.4
20260508003213 74 238 8.0 12.0 0.00 0.00 0.00 24 1019.5
20260508002908 74 239 7.0 12.0 0.00 0.00 0.00 23 1019.5
20260508002605 74 250 7.0 10.0 0.00 0.00 0.00 23 1019.6
20260508001355 75 250 6.0 11.0 0.00 0.00 0.00 22 1019.7
20260508000624 75 250 8.0 12.0 0.00 0.00 0.00 23 1019.7
20260508000317 75 250 8.0 12.0 0.00 0.00 0.00 23 1019.7
20260508000018 75 248 8.0 13.0 0.00 0.00 0.00 23 1019.8
20260507235705 75 248 8.0 13.0 0.00 0.00 0.00 24 1019.8
20260507235409 75 245 8.0 13.0 0.00 0.00 0.00 24 1019.9
20260507234204 75 249 7.0 12.0 0.00 0.00 0.00 22 1020.0
20260507233853 76 252 7.0 12.0 0.00 0.00 0.00 24 1020.0
20260507233544 76 252 7.0 12.0 0.00 0.00 0.00 22 1020.0
20260507233244 76 255 7.0 12.0 0.00 0.00 0.00 23 1020.0
20260507232941 76 255 9.0 15.0 0.00 0.00 0.00 23 1020.1
20260507232221 76 261 6.0 15.0 0.00 0.00 0.00 22 1020.0
20260507231922 76 261 5.0 15.0 0.00 0.00 0.00 23 1020.1
20260507231615 76 261 6.0 15.0 0.00 0.00 0.00 21 1020.0
20260507231316 76 259 7.0 15.0 0.00 0.00 0.00 22 1020.1
20260507231016 76 259 8.0 17.0 0.00 0.00 0.00 22 1020.2
20260507230709 76 259 9.0 17.0 0.00 0.00 0.00 21 1020.3
20260507230411 77 259 9.0 17.0 0.00 0.00 0.00 21 1020.2
20260507230114 76 261 8.0 17.0 0.00 0.00 0.00 22 1020.2
20260507225355 76 269 7.0 17.0 0.00 0.01 0.00 22 1020.3
20260507225041 76 270 6.0 11.0 0.00 0.01 0.00 22 1020.3
20260507224723 77 270 7.0 15.0 0.00 0.01 0.00 23 1020.3
20260507224417 76 279 8.0 15.0 0.00 0.01 0.00 21 1020.4
20260507224104 76 279 9.0 15.0 0.00 0.01 0.00 20 1020.5
20260507223802 77 280 8.0 17.0 0.00 0.01 0.00 21 1020.6
20260507223456 77 275 7.0 17.0 0.00 0.02 0.00 23 1020.5
20260507223148 77 267 6.0 17.0 0.00 0.02 0.00 21 1020.6
20260507222841 76 266 8.0 17.0 0.00 0.02 0.00 21 1020.7
20260507222542 76 269 8.0 17.0 0.00 0.03 0.00 20 1020.8
20260507222244 76 269 9.0 17.0 0.00 0.03 0.00 20 1020.9
20260507221940 77 273 9.0 17.0 0.00 0.03 0.00 21 1020.9
20260507221635 76 273 10.0 15.0 0.00 0.03 0.00 21 1021.0
20260507221337 76 284 9.0 15.0 0.00 0.03 0.00 21 1021.1
20260507221025 76 290 9.0 15.0 0.00 0.03 0.00 21 1021.1
20260507220724 76 288 8.0 15.0 0.00 0.04 0.00 22 1021.1
20260507220412 76 274 9.0 15.0 0.00 0.04 0.00 21 1021.2
20260507215751 76 240 8.0 15.0 0.00 0.04 0.00 21 1021.3
20260507215453 76 246 8.0 21.0 0.00 0.04 0.00 21 1021.3
20260507214302 76 277 9.0 21.0 0.00 0.04 0.00 22 1021.6
20260507213956 76 260 8.0 21.0 0.00 0.04 0.00 22 1021.6
20260507213649 76 269 7.0 21.0 0.00 0.04 0.00 21 1021.6
20260507213344 76 272 7.0 17.0 0.00 0.04 0.00 21 1021.7
20260507213044 76 306 7.0 17.0 0.00 0.04 0.00 20 1021.7
20260507212742 76 306 7.0 17.0 0.00 0.04 0.00 22 1021.8
20260507212443 76 307 7.0 17.0 0.00 0.04 0.00 23 1021.8
20260507211718 76 282 9.0 17.0 0.00 0.04 0.00 20 1022.1
20260507211422 76 288 8.0 17.0 0.00 0.04 0.00 21 1022.0
20260507211123 76 283 7.0 14.0 0.00 0.04 0.00 24 1022.1
20260507210817 76 287 7.0 14.0 0.00 0.04 0.00 22 1022.2
20260507210056 77 273 7.0 21.0 0.00 0.04 0.00 22 1022.2
20260507205753 76 287 8.0 21.0 0.00 0.04 0.00 24 1022.3
20260507205455 75 281 10.0 21.0 0.00 0.04 0.00 23 1022.3
20260507205145 75 276 11.0 21.0 0.00 0.04 0.00 22 1022.5
20260507204424 75 253 8.0 21.0 0.00 0.04 0.00 24 1022.5
20260507204117 75 271 7.0 18.0 0.00 0.04 0.00 25 1022.6
20260507203347 75 265 11.0 18.0 0.00 0.04 0.00 23 1022.9
20260507203045 75 292 10.0 19.0 0.00 0.04 0.00 23 1022.9
20260507202740 76 306 9.0 19.0 0.00 0.04 0.00 24 1022.9
20260507202439 75 277 10.0 19.0 0.00 0.04 0.00 24 1022.9
20260507202133 75 274 11.0 19.0 0.00 0.04 0.00 24 1023.0
20260507201821 75 289 10.0 19.0 0.00 0.05 0.00 24 1023.2
20260507201048 74 268 8.0 14.0 0.00 0.05 0.00 25 1023.5
20260507200750 74 268 10.0 14.0 0.00 0.05 0.00 25 1023.7
20260507200453 74 267 10.0 15.0 0.00 0.05 0.00 24 1023.8
20260507200141 75 277 10.0 15.0 0.00 0.05 0.00 25 1023.6
20260507195829 75 277 9.0 15.0 0.00 0.05 0.00 25 1023.8
20260507195101 74 303 9.0 19.0 0.00 0.05 0.00 25 1023.9
20260507193922 74 269 10.0 19.0 0.00 0.05 0.00 25 1024.0
20260507193617 74 269 9.0 19.0 0.00 0.05 0.00 26 1024.0
20260507193308 74 262 9.0 15.0 0.00 0.05 0.00 25 1024.1
20260507192546 74 278 9.0 20.0 0.00 0.05 0.00 25 1024.3
20260507192240 73 325 10.0 20.0 0.00 0.05 0.00 25 1024.4
20260507191943 73 300 11.0 21.0 0.00 0.05 0.00 24 1024.4
20260507191637 74 301 11.0 21.0 0.00 0.05 0.00 25 1024.5
20260507191339 73 279 11.0 21.0 0.00 0.05 0.00 26 1024.4
20260507191036 73 265 12.0 21.0 0.00 0.05 0.00 25 1024.5
20260507190728 74 279 11.0 23.0 0.00 0.05 0.00 26 1024.5
20260507185959 73 268 11.0 23.0 0.00 0.05 0.00 27 1024.7
20260507185223 72 293 12.0 23.0 0.00 0.06 0.00 26 1024.9
20260507184915 72 252 11.0 20.0 0.00 0.06 0.00 27 1025.0
20260507184136 72 265 12.0 21.0 0.00 0.06 0.00 29 1025.0
20260507183826 72 266 12.0 21.0 0.00 0.06 0.00 28 1025.1
20260507183518 72 268 12.0 21.0 0.00 0.06 0.00 28 1025.1
20260507183216 72 270 12.0 21.0 0.00 0.06 0.00 29 1025.2
20260507182906 72 249 13.0 21.0 0.00 0.06 0.00 30 1025.3
20260507182609 71 271 13.0 21.0 0.00 0.06 0.00 30 1025.4
20260507182311 71 270 13.0 22.0 0.00 0.07 0.00 29 1025.4
20260507182009 70 267 14.0 22.0 0.00 0.07 0.00 29 1025.5
20260507181706 70 268 15.0 22.0 0.00 0.07 0.00 29 1025.7
20260507180937 70 264 14.0 22.0 0.00 0.07 0.00 32 1025.7
20260507180633 70 265 14.0 22.0 0.00 0.07 0.00 31 1025.7
20260507180322 70 271 15.0 22.0 0.00 0.07 0.00 33 1025.8
20260507175544 69 264 15.0 23.0 0.00 0.07 0.00 32 1025.8
20260507175243 69 259 15.0 23.0 0.00 0.07 0.00 31 1025.9
20260507174939 69 269 15.0 23.0 0.00 0.07 0.00 33 1026.0
20260507174207 68 290 14.0 23.0 0.00 0.08 0.00 37 1026.1
20260507173453 69 275 13.0 21.0 0.00 0.09 0.00 38 1026.2
20260507173152 68 285 14.0 21.0 0.00 0.09 0.00 39 1026.2
20260507172842 68 267 15.0 21.0 0.00 0.09 0.00 40 1026.2
20260507172541 67 279 15.0 21.0 0.00 0.09 0.00 40 1026.3
20260507172241 67 279 14.0 21.0 0.00 0.10 0.00 36 1026.3
20260507171928 67 279 13.0 20.0 0.00 0.10 0.00 43 1026.4
20260507171623 67 277 12.0 20.0 0.00 0.11 0.00 44 1026.4
20260507171326 67 288 13.0 20.0 0.00 0.11 0.00 42 1026.5
20260507171019 66 267 13.0 19.0 0.00 0.11 0.00 44 1026.6
20260507170721 66 282 14.0 22.0 0.00 0.12 0.00 47 1026.6
20260507170416 65 277 14.0 22.0 0.00 0.12 0.00 48 1026.6
20260507170109 65 266 13.0 22.0 0.00 0.13 0.00 49 1026.6
20260507165803 65 265 13.0 22.0 0.00 0.13 0.00 46 1026.6
20260507165032 64 271 14.0 22.0 0.00 0.15 0.00 49 1026.7
20260507164312 63 277 13.0 19.0 0.00 0.17 0.00 52 1026.9
20260507164004 63 281 13.0 19.0 0.00 0.17 0.00 53 1027.0
20260507163702 63 279 13.0 19.0 0.00 0.18 0.00 55 1026.9
20260507163400 63 281 12.0 21.0 0.00 0.18 0.00 58 1027.0
20260507163053 62 283 13.0 21.0 0.00 0.19 0.00 55 1026.9
20260507162743 62 271 13.0 21.0 0.00 0.19 0.00 56 1027.0
20260507162436 61 287 14.0 21.0 0.00 0.20 0.00 57 1027.0
20260507162123 61 264 14.0 21.0 0.00 0.20 0.00 56 1027.0
20260507161811 60 264 14.0 21.0 0.00 0.20 0.00 59 1027.0
20260507161512 60 275 14.0 20.0 0.00 0.21 0.00 60 1027.1
20260507161158 60 265 13.0 20.0 0.00 0.21 0.00 59 1027.1
20260507160852 60 265 13.0 20.0 0.00 0.22 0.00 60 1027.2
20260507160539 60 261 13.0 20.0 0.00 0.22 0.00 60 1027.2
20260507160227 59 279 13.0 20.0 0.00 0.22 0.00 60 1027.3
20260507155454 58 273 14.0 20.0 0.00 0.23 0.00 62 1027.4
20260507155152 58 280 14.0 20.0 0.00 0.23 0.00 60 1027.5
20260507154855 57 276 13.0 19.0 0.00 0.24 0.00 64 1027.4
20260507154544 57 283 14.0 21.0 0.00 0.25 0.00 63 1027.5
20260507154233 56 287 14.0 21.0 0.00 0.25 0.00 66 1027.6
20260507153923 56 275 15.0 21.0 0.00 0.26 0.00 64 1027.7
20260507153623 55 281 15.0 21.0 0.00 0.26 0.00 66 1027.8
20260507153320 55 273 14.0 21.0 0.00 0.27 0.00 67 1027.8
20260507152558 54 266 13.0 20.0 0.00 0.28 0.00 68 1027.9
20260507152250 54 274 13.0 21.0 0.00 0.29 0.00 70 1027.9
20260507151945 53 282 13.0 21.0 0.00 0.29 0.00 69 1027.9
20260507151215 52 280 14.0 21.0 0.00 0.30 0.00 72 1028.0
20260507150906 52 276 14.0 21.0 0.00 0.30 0.00 72 1028.2
20260507150606 51 273 14.0 21.0 0.00 0.31 0.00 71 1028.1
20260507150304 51 275 13.0 24.0 0.00 0.31 0.00 72 1028.1
20260507150008 51 279 14.0 24.0 0.00 0.31 0.00 74 1028.2
20260507145705 51 286 15.0 24.0 0.00 0.31 0.00 74 1028.2
20260507145400 50 278 15.0 24.0 0.00 0.31 0.00 75 1028.2
20260507145059 50 275 15.0 24.0 0.00 0.31 0.00 75 1028.2
20260507144800 50 278 15.0 24.0 0.00 0.31 0.00 75 1028.3
20260507144447 49 285 15.0 24.0 0.00 0.31 0.00 76 1028.3
20260507143301 48 275 16.0 23.0 0.00 0.31 0.00 78 1028.3
20260507142959 47 281 16.0 23.0 0.00 0.31 0.00 78 1028.3
20260507142647 47 286 16.0 23.0 0.00 0.31 0.00 78 1028.4
20260507142336 47 286 14.0 23.0 0.00 0.31 0.00 80 1028.4
20260507142031 47 271 15.0 23.0 0.00 0.31 0.00 79 1028.3
20260507141304 46 284 15.0 21.0 0.00 0.31 0.00 81 1028.4
20260507140540 45 276 14.0 21.0 0.00 0.31 0.00 83 1028.5
20260507135828 44 279 12.0 21.0 0.00 0.31 0.00 83 1028.5
20260507135521 44 279 13.0 21.0 0.00 0.31 0.00 85 1028.6
20260507135213 44 281 14.0 21.0 0.00 0.31 0.00 85 1028.5
20260507134912 43 287 14.0 21.0 0.00 0.31 0.00 84 1028.6
20260507134603 43 278 13.0 20.0 0.00 0.31 0.00 85 1028.6
20260507134301 43 273 13.0 19.0 0.00 0.31 0.00 85 1028.6
20260507133954 42 273 13.0 19.0 0.00 0.31 0.00 85 1028.6
20260507133644 42 275 13.0 20.0 0.00 0.31 0.00 86 1028.5
20260507133344 42 276 13.0 20.0 0.00 0.31 0.00 86 1028.6